Погода Чапаево

Погода Чапаево : погода сейчас, прогноз погоды и архив. Всё, что Вы хотите узнать о погоде Чапаево!

Поиск расширенной информации на нашем сайте:

Другие новости

Новости СМИ2

Главная страница сайта

Новости сайта

03.07.2017

Напоминаем, что на нашем специализированном сайте Метеоцентр.Азия вы можете получить высокодетализированные автоматические прогнозы погоды по пунктам России, СНГ и мира в авиационном формате (включающие направление и скорость ветра, видимость, явления погоды, количество и форму облачности, нижнюю и верхнюю границу облачности).


Погода Чапаево - сегодня

Время (UTC), дата Ветер
(°,м/с) 
Видим.   Явления Облачность Т
(°С)
Тd
(°С)
f(%) Тe
(°С)
Pmin
(гПа)
dP
(гПа)
Po
(мм)
O2
(г/м3)
Тmin Tmax R s Состояние
почвы
09 21.04.18 350 (С) 20000 м    3/3 600 м 
[Cu med, cong]
+11.2 -0.5 44 +10  1005.4  0.5  753  291           
12 21.04.18 030 (СВ) 20000 м    6/0 верхняя 
[Ci fib]
+11.6 -4.8 31 +11  1005.6  0.2  753  291           
15 21.04.18 330 (СЗ) 20000 м    1/1 600 м 
[Cu Sc]
+10.1 -4.6 35 +9  1006.2  0.6  753  293    +12.2       
18 21.04.18 270 (З) н/о    ясно 
+3.5 -1.9 68 +3  1007.3  754  300    +12.2       
21 21.04.18 230 (ЮЗ) н/о    ясно 
-0.5 -2.6 86 1006.4  -0.9  753  304           
00 22.04.18 200 (Ю) н/о    3/0 верхняя 
[Ci fib]
+0.9 -2.4 79 1004.6  -1.8  752  302           
06 22.04.18 210 (ЮЗ) 8{15}  20000 м    4/4 600 м 
[Cu hum]
+14.2 +2.8 46 +13  999.6  -2.6  748  286  -0.6         
09 22.04.18 210 (ЮЗ) 15{21}  20000 м    8/8 600 м 
[Cu med, cong]
+16.8 +2.5 38 +15  996.6  -2.9  746  283           
12 22.04.18 250 (З) 8{16}  20000 м  в посл. час ливневой дождь  10/10 600 м кучево-дожд. 
[Cb cap]
+10.5 +9.5 94 +10  998  1.3  747  288           
15 22.04.18 260 (З) 20000 м    8/8 600 м 
[Sc]
+12.4 +8.6 78 +11  998.6  0.6  748  287    +17.6       
18 22.04.18 260 (З) н/о  {ливн. осадки}  9/9 600 м 
[Cu Sc]
+7.4 +6.7 95 +7  1000.5  1.9  749  293    +1.7     
21 22.04.18 230 (ЮЗ) н/о    8/0 средняя 
[Ac lent]
+4.5 +4 97 +4  1001.1  0.6  749  296           
00 23.04.18 тихо ()   н/о    1/0 средняя 
[Ac lent]
+2.3 +1.5 94 +2  1001.2  0.1  750  299           
03 23.04.18 040 (СВ) 20000 м    8/8 600 м 
[Cu Sc]
+3.9 +2.1 88 +3  1000.8  -0.4  749  297           
09 23.04.18 310 (СЗ) 20000 м  {ливн. осадки}  8/8 600 м 
[Cu med, cong]
+6.7 +1.8 71 +5  1003.9  0.8  752  295           
12 23.04.18 290 (З) 20000 м  {ливн. осадки}  8/8 600 м 
[Cu med, cong]
+8.3 -2.9 45 +6  1004.7  0.9  752  294           
15 23.04.18 300 (СЗ) 20000 м    8/8 600 м 
[Sc]
+6.6 -3.2 50 +5  1006.3  1.5  753  297    +8.7       
18 23.04.18 300 (СЗ) н/о    5/5 600 м 
[Sc]
+2.5 -2.1 72 +1  1008.4  2.1  755  302    +8.7     
21 23.04.18 260 (З) н/о    5/5 600 м 
[Sc]
+1.5 -0.8 85 +1  1008.9  0.5  755  303           
00 24.04.18 260 (З) н/о    3/0 средняя 
[Ac lent]
-0.1 -1.6 90 +1  1009.1  0.2  755  305           
03 24.04.18 300 (СЗ) 20000 м    ясно 
+0.8 -0.6 90 +1  1010.5  1.4  756  304           
06 24.04.18 300 (СЗ) 20000 м    3/3 600 м 
[Cu hum]
+4.9 -3.9 53 +4  1012.5  758  300  -0.9         
09 24.04.18 300 (СЗ) 20000 м    6/6 600 м 
[Cu med, cong]
+6.9 -6.5 38 +5  1012.9  0.4  758  299           
12 24.04.18 280 (З) 20000 м    6/6 600 м 
[Cu med, cong]
+8.9 -6.5 33 +7  1012.9  758  297           
15 24.04.18 300 (СЗ) 20000 м    6/6 600 м 
[Cu med, cong]
+8.7 -5.1 37 +7  1013.1  0.2  758  297    +10       
Время (UTC), дата Ветер
(°,м/с) 
Видим.   Явления Облачность Т
(°С)
Тd
(°С)
f(%) Тe
(°С)
Pmin
(гПа)
dP
(гПа)
Po
(мм)
O2
(г/м3)
Тmin Tmax R s Состояние
почвы

Для получения пояснительной информации подведите курсор к названию столбца.

ПОГОДА Чапаево - архив

Всё, что Вы хотите узнать о погоде Чапаево - удобно и подробно!

Выберите нужную дату (начиная с 1 января 2015* года) и нажмите кнопку "Найти".
Будут отображены архивные сводки погоды по пункту Чапаево, начиная с указанной даты.


Отображать данные в формате CSV (для использования в таблицах Excel)


Внимание! Наш архив погоды предназначен исключительно для личного некоммерческого использования в познавательных целях. Если Вам необходимы официальные справки о состоянии погоды (для производственных, юридических, коммерческих и т.п. целей), обращайтесь в органы Росгидромета.

*Примечание: данная дата относится к архиву по метеостанциям СССР (Россия, СНГ, Балтия).
Архив по метеостанциям Зарубежной Европы и Азии (кроме Китая) хранится 10 дней, по другим регионам земного шара (Китай, Африка, Америка, Австралия, Океания) - 1 день.

Чапаево - район местоположения метеостанции


Название, широта, долгота, высота метеостанции:
Чапаево 50.2°ш. 51.2°д. 17 м над ур. моря [Казахстан]

Дополнительная информация

В oтличие oт бoльшинства пoгoдных сайтoв мы публикуем пoдрoбную метеoинфoрмацию в детальнoм прoфессиoнальнoм фoрмате.

Характеристики температуры и влажнoсти вoздуха измеряются на высoте 2 м в тени вдали oт зданий и деревьев.
Скoрoсть ветра измеряется на высoте 10 м (на урoвне рoста челoвека скoрoсть ветра ниже в 1.5-2 раза). Если метеoстанция нахoдится в гoрoде или в лесу, тo скoрoсть ветра занижена на 2-4 м/с пo сравнению с oткрытым местoм. Скoрoсть ветра над акватoриями крупных рек и oзёр, а также на вершинах хoлмoв на 2-5 м/с выше, чем в oбычных услoвиях.
Атмoсфернoе давление в разных тoчках местнoсти мoжет значительнo oтличаться oт давления на метеoстанции, в зависимoсти oт услoвий рельефа (при пoдъёме на 10 м давление пoнижается примернo на 1 мм рт.ст.).